This is the latest recevied weather packets stored in our database for station/object K8JCL-13. If no packets are shown the sender has not sent any weather packets the latest 10 day(s).
| Time | Temp. | Humidity | Pressure | Rain* | Wind** | Luminosity | Snow |
|---|---|---|---|---|---|---|---|
| 1777910373 | 20.56° C | 64% | 1008.6 hPa | 0 mm | - | 524 W/m² | - |
| 1777910070 | 20.56° C | 62% | 1008.5 hPa | 0 mm | - | 545 W/m² | - |
| 1777909767 | 20.56° C | 63% | 1008.4 hPa | 0 mm | - | 384 W/m² | - |
| 1777909464 | 20° C | 64% | 1008.5 hPa | 0 mm | - | 456 W/m² | - |
| 1777909162 | 20° C | 63% | 1008.5 hPa | 0 mm | - | 340 W/m² | - |
| 1777908860 | 20° C | 64% | 1008.9 hPa | 0 mm | - | 380 W/m² | - |
| 1777908556 | 20° C | 62% | 1008.9 hPa | 0 mm | - | 415 W/m² | - |
| 1777908253 | 20° C | 67% | 1008.9 hPa | 0 mm | - | 443 W/m² | - |
| 1777907950 | 20° C | 66% | 1009.1 hPa | 0 mm | - | 494 W/m² | - |
| 1777907645 | 19.44° C | 65% | 1009.2 hPa | 0 mm | - | 458 W/m² | - |
| 1777907341 | 20° C | 64% | 1009 hPa | 0 mm | - | 466 W/m² | - |
| 1777907037 | 19.44° C | 65% | 1008.9 hPa | 0 mm | - | 477 W/m² | - |
| 1777906735 | 18.89° C | 62% | 1009.1 hPa | 0 mm | - | 518 W/m² | - |
| 1777906431 | 18.89° C | 64% | 1009.2 hPa | 0 mm | - | 497 W/m² | - |
| 1777906128 | 18.33° C | 65% | 1008.7 hPa | 0 mm | - | 522 W/m² | - |
| 1777905824 | 17.78° C | 67% | 1008.9 hPa | 0 mm | - | 349 W/m² | - |
| 1777905522 | 18.33° C | 66% | 1009.1 hPa | 0 mm | - | 200 W/m² | - |
| 1777905218 | 18.89° C | 64% | 1009 hPa | 0 mm | - | 283 W/m² | - |
| 1777904916 | 18.89° C | 66% | 1009.1 hPa | 0 mm | - | 447 W/m² | - |
| 1777904613 | 17.78° C | 65% | 1009 hPa | 0 mm | - | 485 W/m² | - |
| 1777904310 | 17.78° C | 67% | 1009.1 hPa | 0 mm | - | 398 W/m² | - |
| 1777904007 | 17.78° C | 66% | 1009.3 hPa | 0 mm | - | 237 W/m² | - |
| 1777903704 | 16.67° C | 69% | 1009.3 hPa | 0 mm | - | 431 W/m² | - |
| 1777903399 | 16.67° C | 67% | 1009.3 hPa | 0 mm | - | 383 W/m² | - |
| 1777903096 | 17.22° C | 66% | 1009.5 hPa | 0 mm | - | 248 W/m² | - |
* Rain latest hour (hover to see other rain measurements)
** Current wind speed in m/s (hover to see current wind gust speed)